Погода в Александрии

Румыния     43°58′06″N   25°19′36″E
темп.,
°C
ветер,
м/с
пор.,
м/с
влажн.,
%
обл.,
%
осадки,
мм/ч
давл.,
гПа
погр.,
м
25 февраля, чт
чт2523:00+7ю23730 0.0 103625
02:00+7зюз117519 0.0 103622
05:00+6ююз007886 0.0 103522
08:00+7зюз227880 0.0 103523
11:00+11юз125988 0.0 1035312
14:00+15з234853 0.0 1033649
17:00+15зюз22540 0.0 103286
20:00+11зюз22630 0.0 103222
26 февраля, пт
пт2623:00+10з22660 0.0 103222
02:00+9з22720 0.0 103122
05:00+8зюз22750 0.0 103022
08:00+8зюз23740 0.0 102935
11:00+14з34540 0.0 1028352
14:00+17з34430 0.0 1025652
17:00+17зюз24490 0.0 1023115
20:00+13зюз23590 0.0 102324
27 февраля, сб
сб2723:00+11зюз23630 0.0 102223
02:00+10зюз33690 0.0 102236
05:00+8зюз35790 0.0 1020100
08:00+8з36880 0.0 1020157
11:00+13зсз46630 0.0 1019582
14:00+16сз34460 0.0 10191194
17:00+14всв896329 0.0 1020771
20:00+8в597549 0.9 1023643
28 февраля, вс
вс2823:00+7вюв247496 0.2 1025715
02:00+6вюв348396 0.4 1026499
05:00+6юв4683100 0.1 1026434
08:00+4юв4688100 0.6 1027281
11:00+7ю337994 0.3 1028378
14:00+10з115454 0.3 10281262
17:00+10з12476 0.0 10271492
20:00+8ююз236012 0.0 102927
1 марта, пн
пн123:00+7ююв126772 0.0 103029
02:00+5вюв5107186 0.0 1030341
05:00+3в7108483 0.0 1031460
08:00+3в698680 0.0 1032542
11:00+4вюв4673100 0.0 1033709
14:00+7вюв335595 0.0 10341173
17:00+7в125178 0.0 10341277
20:00+6в236184 0.0 1036157